This demonstration page uses our WeatherBlox Daily Observations layout. Learn more.

Left ArrowRight Arrow

Hourly Observations for January 25, 2018

Temp ( °F °C ) Dew Point ( °F °C ) Humidity (%) Winds ( mph kmh ) Pressure ( in mb ) Visibility ( mi km ) Precip ( " mm )
12:53 am 00:53 Clear 34 1.1 10 -12.2 37 37 ESE 3 6 30.30 1026 10 16 0.00 0.00
1:53 am 01:53 Clear 29 -1.7 8 -13.3 41 41 ENE 3 6 30.29 1026 10 16 0.00 0.00
2:53 am 02:53 Clear 25 -3.9 8 -13.3 48 48 ENE 6 9 30.28 1025 10 16 0.00 0.00
3:53 am 03:53 Clear 24 -4.4 8 -13.3 50 50 E 6 9 30.27 1025 10 16 0.00 0.00
4:53 am 04:53 Clear 28 -2.2 11 -11.7 49 49 Calm 30.24 1024 10 16 0.00 0.00
5:53 am 05:53 Clear 33 0.6 14 -10 45 45 ESE 8 13 30.23 1024 10 16 0.00 0.00
6:53 am 06:53 Clear 35 1.7 14 -10 42 42 ESE 10 17 30.24 1024 10 16 0.00 0.00
7:53 am 07:53 Sunny 34 1.1 14 -10 44 44 ESE 7 11 30.24 1024 10 16 0.00 0.00
8:53 am 08:53 Sunny 38 3.3 15 -9.4 39 39 SE 14 22 30.24 1024 10 16 0.00 0.00
9:53 am 09:53 Cloudy 42 5.6 15 -9.4 33 33 SSE 14 22 30.24 1024 10 16 0.00 0.00
10:53 am 10:53 Cloudy 44 6.7 14 -10 30 30 SSE 10 17 30.25 1025 10 16 0.00 0.00
11:53 am 11:53 Cloudy 47 8.3 14 -10 26 26 SSE 10 17 30.24 1024 10 16 0.00 0.00
12:53 pm 12:53 Mostly Cloudy 56 13.3 16 -8.9 21 21 SSE 13 20 30.17 1022 10 16 0.00 0.00
1:53 pm 13:53 Sunny 61 16.1 17 -8.3 18 18 S 13 20 30.12 1020 10 16 0.00 0.00
2:53 pm 14:53 Sunny 63 17.2 18 -7.8 17 17 SE 13 20 30.09 1019 10 16 0.00 0.00
3:53 pm 15:53 Sunny 63 17.2 17 -8.3 17 17 S 14 22 30.07 1018 10 16 0.00 0.00
4:53 pm 16:53 Sunny 62 16.7 18 -7.8 18 18 SSE 15 24 30.05 1018 10 16 0.00 0.00
5:53 pm 17:53 Sunny 59 15 22 -5.6 24 24 SE 10 17 30.05 1018 10 16 0.00 0.00
6:53 pm 18:53 Clear 54 12.2 25 -3.9 33 33 SE 10 17 30.06 1018 10 16 0.00 0.00
7:53 pm 19:53 Clear 51 10.6 29 -1.7 43 43 SE 15 24 30.08 1019 10 16 0.00 0.00
8:53 pm 20:53 Clear 48 8.9 31 -0.6 52 52 SE 14 22 30.08 1019 10 16 0.00 0.00
9:53 pm 21:53 Clear 46 7.8 32 0 58 58 SE 14 22 30.08 1019 10 16 0.00 0.00
10:53 pm 22:53 Clear 43 6.1 34 1.1 71 71 SE 14 22 30.08 1019 10 16 0.00 0.00
11:53 pm 23:53 Clear 43 6.1 37 2.8 80 80 SE 17 28 30.07 1018 10 16 0.00 0.00

Powered by AerisWeather